Regional Weather Roundup
Issued by NWS Glasgow, MT

Home | Current Version | Previous Version | Text Only | Print | Product List | Glossary On
Versions: 1 2 3 4 5 6 7 8 9 10 11 12 13 14 15 16 17 18 19 20 21 22 23 24 25 26 27
000
ASUS45 KGGW 271315
RWRGGW
HOURLY REGIONAL WEATHER ROUNDUP FOR NORTHEAST MONTANA
NATIONAL WEATHER SERVICE GLASGOW MONTANA
600 AM MST MON FEB 27 2017

NOTE: "FAIR" INDICATES FEW OR NO CLOUDS BELOW 12,000 FEET WITH NO
SIGNIFICANT WEATHER AND/OR OBSTRUCTIONS TO VISISBILITY.

NORTHEAST MONTANA


CITY           SKY/WX    TMP DP  RH WIND       PRES   REMARKS
GLASGOW        CLOUDY    13   9  84 E8        29.76R
PLENTYWOOD       N/A      7   3  84 N6          N/A
WOLF POINT     LGT SNOW  16  10  77 NE13      29.80R
JORDAN           N/A     17  14  88 NE9       29.70S
WINNETT          N/A     16  15  96 N6          N/A
SIDNEY         LGT SNOW  14  11  87 NE15      29.79S FOG     WCI  -1
GLENDIVE       LGT SNOW  18  16  92 NE15      29.71S FOG
MALTA            N/A     13  11  92 NE5         N/A

FORT PECK REPORTS


CITY           SKY/WX    TMP DP  RH WIND       PRES   REMARKS
FORT PECK        N/A     15  14  95 NE12        N/A
THE PINES        N/A     16  14  92 CALM        N/A

SOUTHEAST MONTANA


CITY           SKY/WX    TMP DP  RH WIND       PRES   REMARKS
BILLINGS       CLOUDY    21  18  88 N10       29.61S
MILES CITY     CLOUDY    22  18  85 NE17      29.64R
BAKER          CLOUDY    22  18  85 SE15      29.62S
LIVINGSTON     CLOUDY    17  13  84 E12       29.55R

CENTRAL MONTANA


CITY           SKY/WX    TMP DP  RH WIND       PRES   REMARKS
HAVRE          CLOUDY     8   6  92 E6        29.74F
LEWISTOWN      CLOUDY     8   6  92 E9        29.60S
GREAT FALLS    CLOUDY     8   4  83 NE5       29.64S FOG
CUT BANK       MOCLDY     4   2  91 SE6       29.61F
HELENA         PTCLDY    10   5  80 SW7       29.62S
BUTTE          CLEAR      9   3  77 S3        29.51S
BOZEMAN        CLEAR     11   8  88 SE6       29.58R

WESTERN MONTANA


CITY           SKY/WX    TMP DP  RH WIND       PRES   REMARKS
MISSOULA       LGT SNOW  22  21  96 SE6       29.59S FOG
KALISPELL      NOT AVBL

NORTH DAKOTA


CITY           SKY/WX    TMP DP  RH WIND       PRES   REMARKS
WILLISTON      LGT SNOW  12   8  84 N12       29.82R FOG     WCI  -2
DICKINSON      LGT SNOW  18  15  88 E10       29.67F FOG
MINOT          LGT SNOW  14   7  73 NW12      29.82R
BISMARCK       CLOUDY    11   8  88 E5        29.83S

SOUTHERN SASKATCHEWAN


CITY           SKY/WX    TMP DP  RH WIND       PRES   REMARKS
REGINA         PTCLDY    -4  -8  84 NW3       29.83S
MOOSE JAW      PTCLDY    -2  -4  92 W5        29.85S
ESTEVAN        MOCLDY     3  -2  78 NW10      29.83R WCI -12
SWIFT CURRENT  CLEAR     -6  -9  84 SW6       29.73F





USA.gov is the U.S. government's official web portal to all federal, state and local government web resources and services.